Weather History for KMUO - January, 2014

Change the Weather History Date:

Tuesday, January 21, 2014

  Actual Average Record
Temperature  
Mean Temperature 26 °F 31 °F  
Max Temperature 29 °F 39 °F 52 °F (1981)
Min Temperature 23 °F 22 °F -29 °F (1937)
Degree Days  
Heating Degree Days 39 34  
Month to date heating degree days 699 736  
Cooling Degree Days 0 0  
Month to date cooling degree days 0 0  
Moisture  
Dew Point 26 °F    
Average Humidity 100    
Maximum Humidity 100    
Minimum Humidity 99    
Precipitation  
Precipitation 0.00 in 0.04 in 0.50 in (1970)
Month to date precipitation 0.30 0.81  
Sea Level Pressure  
Sea Level Pressure 30.51 in    
Wind  
Wind Speed 3 mph (North)    
Max Wind Speed 8 mph    
Max Gust Speed -    
Visibility 2 miles    
Events Fog    
T = Trace of Precipitation, MM = Missing Value Source: NWS Daily Summary

Daily Weather History Graph

Daily Weather History Graph

Search for Another Location

Airport or City:

Trip Planner

Search our weather history database for the weather conditions in past years. The results will help you decide how hot, cold, wet, or windy it might be!

Date:

Astronomy

Jan. 21, 2014 Rise Set
Actual Time 8:08 AM MST 5:41 PM MST
Civil Twilight 7:37 AM MST 6:12 PM MST
Nautical Twilight 7:02 AM MST 6:47 PM MST
Astronomical Twilight 6:28 AM MST 7:21 PM MST
Moon 11:28 PM MST (1/21) 10:31 AM MST (1/21)
Length of Visible Light 10h 35m
Length of Day
9h 33m
Waning Gibbous, 74% of the Moon is Illuminated
Jan 21
Waning Gibbous
Jan 23
Last Quarter
Jan 30
New
Feb 6
First Quarter
Feb 14
Full

Hourly Weather History & Observations

Time (MST) Temp. Windchill Dew Point Humidity Pressure Visibility Wind Dir Wind Speed Gust Speed Precip Events Conditions
12:28 AM 26.6 °F 21.2 °F 26.6 °F 100% 30.53 in 3.0 mi NNW 4.6 mph - N/A   Overcast
12:38 AM 26.6 °F 22.6 °F 26.6 °F 100% 30.53 in 2.5 mi NW 3.5 mph - N/A   Overcast
12:53 AM 26.6 °F - 26.6 °F 100% 30.52 in 1.8 mi Calm Calm - N/A   Overcast
12:58 AM 26.2 °F - 26.2 °F 100% 30.62 in 1.8 mi NW 2.3 mph - N/A   Overcast
1:03 AM 26.6 °F - 26.6 °F 100% 30.52 in 1.5 mi West 2.3 mph - N/A   Overcast
1:13 AM 26.6 °F 22.6 °F 26.6 °F 100% 30.52 in 1.0 mi West 3.5 mph - N/A   Mist
1:23 AM 26.6 °F - 26.6 °F 100% 30.52 in 0.8 mi West 2.3 mph - N/A   Mist
1:28 AM 26.6 °F - 26.6 °F 100% 30.52 in 0.8 mi WNW 2.3 mph - N/A   Mist
1:38 AM 26.6 °F - 26.6 °F 100% 30.52 in 1.0 mi Variable 1.2 mph - N/A   Mist
1:53 AM 26.6 °F - 26.6 °F 100% 30.51 in 0.8 mi Calm Calm - N/A   Mist
1:58 AM 25.9 °F - 25.9 °F 100% 30.60 in 0.8 mi Calm Calm - N/A   Mist
2:18 AM 26.6 °F - 26.6 °F 100% 30.51 in 0.5 mi SW 2.3 mph - N/A Fog Light Freezing Fog
2:48 AM 26.6 °F - 26.6 °F 100% 30.51 in 0.8 mi SE 1.2 mph - N/A   Mist
2:58 AM 26.1 °F - 26.1 °F 100% 30.59 in 0.8 mi Calm Calm - N/A   Mist
3:13 AM 26.6 °F - 26.6 °F 100% 30.51 in 0.5 mi NNE 2.3 mph - N/A Fog Light Freezing Fog
3:58 AM 25.7 °F - 25.7 °F 100% 30.60 in 0.5 mi South 2.3 mph - N/A Fog Light Freezing Fog
4:03 AM 24.8 °F 20.5 °F 24.8 °F 100% 30.51 in 0.5 mi SE 3.5 mph - N/A Fog Light Freezing Fog
4:13 AM 24.8 °F - 24.8 °F 100% 30.51 in 0.2 mi NE 2.3 mph - N/A Fog Light Freezing Fog
4:23 AM 24.8 °F - 24.8 °F 100% 30.51 in 0.5 mi SE 2.3 mph - N/A Fog Light Freezing Fog
4:33 AM 24.8 °F - 24.8 °F 100% 30.50 in 0.2 mi Variable 2.3 mph - N/A Fog Light Freezing Fog
4:58 AM 25.7 °F 21.5 °F 25.7 °F 100% 30.59 in 0.5 mi East 3.5 mph - N/A Fog Light Freezing Fog
5:08 AM 26.6 °F - 26.6 °F 100% 30.50 in 0.2 mi Calm Calm - N/A Fog Light Freezing Fog
5:58 AM 25.7 °F - 25.7 °F 100% 30.60 in 0.2 mi Variable 2.3 mph - N/A Fog Light Freezing Fog
6:59 AM 24.8 °F - 24.8 °F 100% 30.49 in 0.2 mi SSE 2.3 mph - N/A Fog Light Freezing Fog
7:58 AM 24.6 °F 18.8 °F 24.6 °F 100% 30.60 in 0.5 mi ESE 4.6 mph - N/A Fog Light Freezing Fog
8:16 AM 24.8 °F 19.1 °F 24.8 °F 100% 30.50 in 0.2 mi ESE 4.6 mph - N/A Fog Light Freezing Fog
8:58 AM 22.8 °F 15.5 °F 22.8 °F 100% 30.61 in 0.2 mi East 5.8 mph - N/A Fog Light Freezing Fog
9:58 AM 23.4 °F - 23.4 °F 100% 30.61 in 0.2 mi ENE 2.3 mph - N/A Fog Light Freezing Fog
10:58 AM 23.0 °F - 23.0 °F 100% 30.62 in 0.5 mi ENE 2.3 mph - N/A Fog Light Freezing Fog
11:15 AM 24.8 °F 20.5 °F 24.8 °F 100% 30.51 in 0.8 mi NNE 3.5 mph - N/A   Overcast
11:22 AM 24.8 °F - 24.8 °F 100% 30.50 in 1.0 mi ENE 2.3 mph - N/A   Overcast
11:30 AM 24.8 °F - 24.8 °F 100% 30.50 in 1.8 mi ENE 1.2 mph - N/A   Overcast
11:36 AM 24.8 °F 20.5 °F 24.8 °F 100% 30.50 in 2.5 mi ENE 3.5 mph - N/A   Overcast
11:44 AM 24.8 °F - 24.8 °F 100% 30.50 in 3.0 mi ENE 1.2 mph - N/A   Overcast
11:58 AM 24.6 °F - 24.6 °F 100% 30.59 in 4.0 mi SE 1.2 mph - 0.00 in   Overcast
12:58 PM 25.2 °F - 25.2 °F 100% 30.56 in 6.0 mi NW 2.3 mph - N/A   Overcast
1:26 PM 26.6 °F - 26.6 °F 100% 30.44 in 6.0 mi Variable 1.2 mph - N/A   Overcast
1:38 PM 26.6 °F - 26.6 °F 100% 30.43 in 6.0 mi North 2.3 mph - N/A   Overcast
1:58 PM 26.2 °F - 26.2 °F 100% 30.52 in 6.0 mi NNE 1.2 mph - N/A   Overcast
2:58 PM 27.7 °F - 27.7 °F 100% 30.48 in 6.0 mi North 2.3 mph - N/A   Overcast
3:58 PM 28.2 °F 23.1 °F 28.2 °F 100% 30.49 in 6.0 mi West 4.6 mph - N/A   Mostly Cloudy
4:58 PM 28.6 °F 21.5 °F 28.6 °F 100% 30.47 in 5.0 mi WSW 6.9 mph - N/A   Overcast
5:13 PM 26.6 °F 19.1 °F 26.6 °F 100% 30.38 in 3.0 mi WSW 6.9 mph - N/A   Overcast
5:28 PM 26.6 °F 18.2 °F 26.6 °F 100% 30.39 in 3.0 mi WSW 8.1 mph - N/A   Overcast
5:32 PM 26.6 °F 18.2 °F 26.6 °F 100% 30.39 in 2.0 mi WSW 8.1 mph - N/A   Overcast
5:58 PM 26.8 °F 18.5 °F 26.8 °F 100% 30.49 in 2.0 mi West 8.1 mph - N/A   Overcast
6:58 PM 26.8 °F 20.2 °F 26.8 °F 100% 30.49 in 2.0 mi WSW 5.8 mph - N/A   Overcast
7:58 PM 27.5 °F 23.6 °F 27.3 °F 99% 30.48 in 3.0 mi WNW 3.5 mph - N/A   Overcast
8:58 PM 27.0 °F - 27.0 °F 100% 30.48 in 5.0 mi WSW 2.3 mph - N/A   Overcast
9:58 PM 26.4 °F 22.4 °F 26.4 °F 100% 30.47 in 6.0 mi NW 3.5 mph - N/A   Overcast
10:58 PM 25.7 °F 21.5 °F 25.7 °F 100% 30.47 in 4.0 mi NNW 3.5 mph - N/A   Overcast
11:47 PM 24.8 °F - 24.8 °F 100% 30.36 in 1.8 mi North 2.3 mph - N/A   Overcast
11:52 PM 24.8 °F - 24.8 °F 100% 30.36 in 1.5 mi NE 2.3 mph - N/A   Overcast
11:58 PM 25.3 °F 21.1 °F 25.3 °F 100% 30.47 in 1.5 mi NE 3.5 mph - N/A   Overcast